logo
Rechercher aéroport 
image banner adimage banner adimage banner ad
image banner ad

0PS4 - Old Orchard

Situé à Curwensville, United States

ICAO - 0PS4, IATA -

Données fournies par Airmate  

Information générale

Coordonnées: N41°0'30" W78°33'39"
Élévation : 1980 feet MSL.
Variation magnétique : -09° East
Voir autres Aéroports à Pennsylvania

Données opérationnelles

Special qualification required
Heure actuelle UTC:
Heure actuelle locale:
Météo à : KFIG - Clearfield-Lawrence ( 13 km )
METAR: KFIG 261454Z AUTO 23018G26KT 10SM SCT025 BKN034 BKN041 16/09 A2970 RMK AO2 PK WND 23026/1454 SLP053 60002 T01560094 51010
Voir NOTAMs / SUP AIP / TFR affectant cet aéroport [VIEW]
Fréquences de communication: [VIEW]

Pistes:

Identifiant RWYQFULongueur (ft)Largeur (ft)SurfaceLDA (ft)
062400100GRASS
242400100GRASS

Coordonnées de l'aéroport

Adresse: Curwensville United States

Vue satellite de 0PS4